DLH2WD EDDM-LEIB

Flight info

Callsign DLH2WD
Flight time 2h 9m
Altitude 35000
Route TURBU7W TURBU Y107 TOBSO DCT BAKOR DCT MISPO DCT PIDAD DCT TALEP DCT RARQU DCT BALEN/N0454F330 DCT SORAS N850 POS
Aircraft A321/M-SDE3FGHIRWY/LB1

Departure

Time 2026-05-06 06:57
Airport Munich Airport (EDDM)

Arrival

Time 2026-05-06 09:06
Airport Ibiza Airport (LEIB)
Time Latitude Longitude Altitude Speed Heading
2026-05-06 06:32 48.35656 11.79698 1477 ft 0 kts 83°
2026-05-06 06:48 48.35656 11.79695 1513 ft 2 kts 83°
2026-05-06 06:48 48.35653 11.79657 1477 ft 4 kts 83°
2026-05-06 06:49 48.35650 11.79622 1473 ft 2 kts 83°
2026-05-06 06:49 48.35650 11.79585 1475 ft 4 kts 107°
2026-05-06 06:49 48.35663 11.79556 1473 ft 4 kts 160°
2026-05-06 06:49 48.35687 11.79549 1471 ft 4 kts 173°
2026-05-06 06:50 48.35693 11.79548 1471 ft 0 kts 173°
2026-05-06 06:52 48.35689 11.79549 1471 ft 1 kts 173°
2026-05-06 06:52 48.35661 11.79554 1473 ft 7 kts 173°
2026-05-06 06:52 48.35601 11.79565 1485 ft 9 kts 173°
2026-05-06 06:53 48.35532 11.79577 1485 ft 11 kts 173°
2026-05-06 06:53 48.35456 11.79590 1473 ft 12 kts 173°
2026-05-06 06:53 48.35372 11.79604 1477 ft 13 kts 173°
2026-05-06 06:53 48.35281 11.79620 1481 ft 14 kts 173°
2026-05-06 06:54 48.35183 11.79637 1480 ft 15 kts 173°
2026-05-06 06:54 48.35079 11.79655 1474 ft 16 kts 173°
2026-05-06 06:54 48.34968 11.79675 1475 ft 16 kts 173°
2026-05-06 06:54 48.34853 11.79694 1480 ft 16 kts 173°
2026-05-06 06:55 48.34810 11.79800 1478 ft 14 kts 84°
2026-05-06 06:55 48.34821 11.79952 1485 ft 15 kts 83°
2026-05-06 06:55 48.34829 11.80112 1485 ft 16 kts 102°
2026-05-06 06:55 48.34758 11.80234 1482 ft 16 kts 159°
2026-05-06 06:56 48.34645 11.80258 1485 ft 17 kts 173°
2026-05-06 06:56 48.34525 11.80279 1474 ft 17 kts 173°
2026-05-06 06:56 48.34469 11.80269 1485 ft 6 kts 233°
2026-05-06 06:56 48.34461 11.80192 1480 ft 13 kts 262°
2026-05-06 06:57 48.34420 11.79671 1481 ft 86 kts 263°
2026-05-06 06:57 48.34327 11.78475 1486 ft 145 kts 263°
2026-05-06 06:57 48.34195 11.76721 1510 ft 189 kts 263°
2026-05-06 06:57 48.34061 11.74816 2261 ft 181 kts 264°
2026-05-06 06:58 48.33907 11.72913 2891 ft 189 kts 258°
2026-05-06 06:58 48.33181 11.71205 3087 ft 211 kts 215°
2026-05-06 06:58 48.31747 11.70546 3444 ft 221 kts 187°
2026-05-06 06:58 48.30198 11.70446 4019 ft 224 kts 180°
2026-05-06 06:59 48.28663 11.70842 4636 ft 227 kts 157°
2026-05-06 06:59 48.27287 11.72135 4974 ft 246 kts 144°
2026-05-06 06:59 48.25843 11.73706 5322 ft 264 kts 145°
2026-05-06 06:59 48.24321 11.75294 5987 ft 268 kts 146°
2026-05-06 07:00 48.22778 11.76867 6741 ft 268 kts 147°
2026-05-06 07:00 48.21225 11.78435 7436 ft 271 kts 147°
2026-05-06 07:00 48.19653 11.80019 8126 ft 274 kts 147°
2026-05-06 07:00 48.18031 11.81542 8810 ft 276 kts 155°
2026-05-06 07:01 48.16233 11.82558 9492 ft 278 kts 163°
2026-05-06 07:01 48.14384 11.83470 10082 ft 284 kts 163°
2026-05-06 07:01 48.12435 11.84436 10211 ft 306 kts 163°
2026-05-06 07:01 48.10349 11.85471 10343 ft 326 kts 163°
2026-05-06 07:02 48.08139 11.86571 10470 ft 344 kts 163°
2026-05-06 07:02 48.05807 11.87733 10605 ft 361 kts 163°
2026-05-06 07:02 48.03396 11.88932 10968 ft 368 kts 163°
2026-05-06 07:02 48.00957 11.90144 11497 ft 371 kts 163°
2026-05-06 07:03 47.98496 11.91364 12036 ft 374 kts 163°
2026-05-06 07:03 47.96018 11.92589 12583 ft 376 kts 163°
2026-05-06 07:03 47.93557 11.93806 13107 ft 379 kts 164°
2026-05-06 07:03 47.90954 11.94690 13632 ft 380 kts 175°
2026-05-06 07:04 47.88346 11.94829 14086 ft 381 kts 182°
2026-05-06 07:04 47.85690 11.94765 14550 ft 383 kts 182°
2026-05-06 07:04 47.83012 11.94705 15000 ft 386 kts 183°
2026-05-06 07:04 47.80325 11.94648 15453 ft 388 kts 183°
2026-05-06 07:05 47.77616 11.94601 15918 ft 390 kts 183°
2026-05-06 07:05 47.74894 11.94556 16388 ft 392 kts 183°
2026-05-06 07:05 47.72162 11.94509 16843 ft 394 kts 183°
2026-05-06 07:05 47.69409 11.94459 17273 ft 396 kts 184°
2026-05-06 07:06 47.66644 11.94408 17714 ft 398 kts 184°
2026-05-06 07:06 47.63866 11.94361 18142 ft 401 kts 184°
2026-05-06 07:06 47.61069 11.94313 18532 ft 403 kts 184°
2026-05-06 07:06 47.58263 11.94263 18929 ft 403 kts 184°
2026-05-06 07:07 47.55460 11.94215 19381 ft 403 kts 184°
2026-05-06 07:07 47.52650 11.94166 19822 ft 405 kts 184°
2026-05-06 07:07 47.49828 11.94116 20249 ft 406 kts 184°
2026-05-06 07:07 47.47002 11.94066 20672 ft 407 kts 184°
2026-05-06 07:08 47.44168 11.94020 21075 ft 408 kts 184°
2026-05-06 07:08 47.41351 11.93670 21441 ft 406 kts 191°
2026-05-06 07:08 47.38548 11.93111 21817 ft 407 kts 191°
2026-05-06 07:08 47.35732 11.92546 22107 ft 410 kts 190°
2026-05-06 07:09 47.32895 11.91976 22460 ft 412 kts 191°
2026-05-06 07:09 47.30052 11.91405 22852 ft 413 kts 191°
2026-05-06 07:09 47.27196 11.90831 23242 ft 415 kts 191°
2026-05-06 07:09 47.24328 11.90259 23610 ft 417 kts 191°
2026-05-06 07:10 47.21446 11.89686 23926 ft 418 kts 191°
2026-05-06 07:10 47.18557 11.89110 24254 ft 420 kts 191°
2026-05-06 07:10 47.15658 11.88537 24589 ft 421 kts 191°
2026-05-06 07:10 47.12757 11.87961 24861 ft 421 kts 191°
2026-05-06 07:11 47.09846 11.87384 25170 ft 422 kts 191°
2026-05-06 07:11 47.06930 11.86807 25369 ft 424 kts 191°
2026-05-06 07:11 47.03999 11.86230 25631 ft 425 kts 191°
2026-05-06 07:11 47.01061 11.85628 25856 ft 426 kts 192°
2026-05-06 07:12 46.98143 11.84874 26111 ft 426 kts 194°
2026-05-06 07:12 46.95243 11.83973 26343 ft 425 kts 195°
2026-05-06 07:12 46.92372 11.82998 26573 ft 423 kts 196°
2026-05-06 07:12 46.89509 11.82004 26827 ft 423 kts 196°
2026-05-06 07:13 46.86650 11.81026 27155 ft 421 kts 196°
2026-05-06 07:13 46.83795 11.80076 27480 ft 421 kts 195°
2026-05-06 07:13 46.80943 11.79152 27808 ft 420 kts 195°
2026-05-06 07:13 46.78092 11.78250 28066 ft 419 kts 195°
2026-05-06 07:14 46.75283 11.77376 28359 ft 418 kts 195°
2026-05-06 07:14 46.72445 11.76493 28680 ft 416 kts 195°
2026-05-06 07:14 46.69617 11.75611 28973 ft 416 kts 195°
2026-05-06 07:14 46.66792 11.74722 29290 ft 415 kts 195°
2026-05-06 07:15 46.63981 11.73824 29619 ft 413 kts 197°
2026-05-06 07:15 46.61275 11.72505 29880 ft 408 kts 206°
2026-05-06 07:15 46.59567 11.71258 30025 ft 407 kts 212°
2026-05-06 07:15 46.57238 11.68938 30284 ft 405 kts 217°
2026-05-06 07:16 46.54990 11.66494 30565 ft 403 kts 217°
2026-05-06 07:16 46.52740 11.64067 30816 ft 402 kts 217°
2026-05-06 07:16 46.50496 11.61658 31043 ft 401 kts 217°
2026-05-06 07:16 46.48254 11.59261 31244 ft 401 kts 217°
2026-05-06 07:17 46.46010 11.56867 31511 ft 400 kts 217°
2026-05-06 07:17 46.43046 11.53710 31872 ft 398 kts 217°
2026-05-06 07:17 46.41568 11.52137 32046 ft 397 kts 217°
2026-05-06 07:17 46.39347 11.49771 32294 ft 396 kts 217°
2026-05-06 07:18 46.37133 11.47410 32516 ft 394 kts 217°
2026-05-06 07:18 46.34931 11.45060 32788 ft 392 kts 217°
2026-05-06 07:18 46.32741 11.42725 33054 ft 391 kts 218°
2026-05-06 07:18 46.30558 11.40397 33320 ft 390 kts 218°
2026-05-06 07:19 46.28377 11.38075 33545 ft 389 kts 218°
2026-05-06 07:19 46.26200 11.35766 33812 ft 388 kts 218°
2026-05-06 07:19 46.24024 11.33466 34048 ft 386 kts 217°
2026-05-06 07:19 46.21855 11.31170 34231 ft 387 kts 218°
2026-05-06 07:20 46.19684 11.28872 34379 ft 387 kts 218°
2026-05-06 07:20 46.17512 11.26575 34538 ft 388 kts 218°
2026-05-06 07:20 46.15333 11.24271 34713 ft 389 kts 218°
2026-05-06 07:20 46.13150 11.21968 34870 ft 389 kts 218°
2026-05-06 07:21 46.10960 11.19663 34960 ft 391 kts 218°
2026-05-06 07:21 46.06554 11.15033 34973 ft 393 kts 218°
2026-05-06 07:22 46.02141 11.10391 34966 ft 392 kts 218°
2026-05-06 07:22 45.97744 11.05781 34960 ft 390 kts 218°
2026-05-06 07:23 45.93361 11.01191 34955 ft 390 kts 218°
2026-05-06 07:23 45.88975 10.96617 34960 ft 390 kts 218°
2026-05-06 07:24 45.84584 10.92036 34962 ft 390 kts 218°
2026-05-06 07:24 45.80191 10.87476 34965 ft 390 kts 217°
2026-05-06 07:25 45.75795 10.82919 34962 ft 389 kts 218°
2026-05-06 07:25 45.71412 10.78374 34961 ft 389 kts 218°
2026-05-06 07:26 45.67031 10.73843 34962 ft 389 kts 218°
2026-05-06 07:26 45.62652 10.69322 34954 ft 388 kts 218°
2026-05-06 07:27 45.58276 10.64824 34956 ft 387 kts 217°
2026-05-06 07:27 45.53903 10.60343 34953 ft 387 kts 218°
2026-05-06 07:28 45.49530 10.55860 34947 ft 387 kts 218°
2026-05-06 07:28 45.43026 10.49206 34950 ft 385 kts 217°
2026-05-06 07:29 45.38673 10.44760 34948 ft 385 kts 217°
2026-05-06 07:29 45.34317 10.40331 34946 ft 385 kts 217°
2026-05-06 07:30 45.29960 10.35895 34909 ft 385 kts 218°
2026-05-06 07:30 45.25605 10.31467 34921 ft 385 kts 218°
2026-05-06 07:31 45.21247 10.27048 34916 ft 385 kts 218°
2026-05-06 07:31 45.16885 10.22640 34920 ft 385 kts 218°
2026-05-06 07:32 45.12516 10.18243 34927 ft 385 kts 218°
2026-05-06 07:32 45.08151 10.13849 34927 ft 385 kts 217°
2026-05-06 07:33 45.03783 10.09459 34926 ft 385 kts 218°
2026-05-06 07:33 44.99424 10.05068 34912 ft 384 kts 218°
2026-05-06 07:34 44.95070 10.00684 34913 ft 385 kts 218°
2026-05-06 07:34 44.90714 9.96297 34915 ft 385 kts 217°
2026-05-06 07:35 44.86362 9.91917 34924 ft 384 kts 217°
2026-05-06 07:35 44.82009 9.87557 34919 ft 383 kts 217°
2026-05-06 07:36 44.77667 9.83206 34918 ft 383 kts 217°
2026-05-06 07:36 44.73321 9.78870 34900 ft 383 kts 217°
2026-05-06 07:37 44.68996 9.74561 34899 ft 384 kts 217°
2026-05-06 07:37 44.64644 9.70221 34903 ft 384 kts 217°
2026-05-06 07:38 44.60287 9.65892 34890 ft 384 kts 217°
2026-05-06 07:38 44.55921 9.61575 34894 ft 384 kts 217°
2026-05-06 07:39 44.51561 9.57266 34900 ft 384 kts 217°
2026-05-06 07:39 44.47199 9.52958 34897 ft 384 kts 217°
2026-05-06 07:40 44.42834 9.48649 34901 ft 384 kts 217°
2026-05-06 07:40 44.38461 9.44352 34924 ft 384 kts 217°
2026-05-06 07:41 44.34091 9.40057 34905 ft 383 kts 217°
2026-05-06 07:41 44.29735 9.35778 34906 ft 383 kts 217°
2026-05-06 07:42 44.25372 9.31513 34920 ft 383 kts 216°
2026-05-06 07:42 44.21005 9.27249 34889 ft 384 kts 216°
2026-05-06 07:43 44.16626 9.22983 34893 ft 385 kts 216°
2026-05-06 07:43 44.12263 9.18741 34893 ft 385 kts 216°
2026-05-06 07:44 44.07863 9.14463 34898 ft 386 kts 216°
2026-05-06 07:44 44.03428 9.10160 34876 ft 386 kts 216°
2026-05-06 07:45 43.99012 9.05881 34899 ft 387 kts 216°
2026-05-06 07:45 43.94618 9.01630 34901 ft 388 kts 216°
2026-05-06 07:46 43.90155 8.97328 34902 ft 388 kts 216°
2026-05-06 07:46 43.85743 8.93087 34876 ft 389 kts 216°
2026-05-06 07:47 43.81291 8.88823 34882 ft 389 kts 216°
2026-05-06 07:47 43.76837 8.84549 34891 ft 390 kts 216°
2026-05-06 07:48 43.72381 8.80278 34901 ft 390 kts 216°
2026-05-06 07:48 43.67918 8.76012 34886 ft 390 kts 216°
2026-05-06 07:49 43.63194 8.72343 34896 ft 394 kts 202°
2026-05-06 07:49 43.57728 8.71214 34924 ft 404 kts 186°
2026-05-06 07:50 43.52163 8.70797 34912 ft 393 kts 202°
2026-05-06 07:50 43.49733 8.69169 34895 ft 387 kts 214°
2026-05-06 07:50 43.47436 8.67230 34893 ft 388 kts 212°
2026-05-06 07:51 43.42791 8.63412 34888 ft 389 kts 212°
2026-05-06 07:51 43.38148 8.59595 34895 ft 389 kts 212°
2026-05-06 07:52 43.33564 8.55717 34907 ft 389 kts 217°
2026-05-06 07:52 43.29411 8.50970 34889 ft 389 kts 223°
2026-05-06 07:53 43.25503 8.45828 34896 ft 390 kts 224°
2026-05-06 07:53 43.21548 8.40742 34905 ft 390 kts 222°
2026-05-06 07:54 43.17512 8.35771 34917 ft 390 kts 222°
2026-05-06 07:54 43.13452 8.30841 34914 ft 389 kts 222°
2026-05-06 07:55 43.09404 8.25916 34892 ft 390 kts 222°
2026-05-06 07:55 43.05345 8.20989 34906 ft 391 kts 222°
2026-05-06 07:56 43.01281 8.16044 34913 ft 391 kts 222°
2026-05-06 07:56 42.97217 8.11097 34917 ft 391 kts 222°
2026-05-06 07:57 42.93147 8.06163 34906 ft 392 kts 222°
2026-05-06 07:57 42.89070 8.01227 34916 ft 392 kts 222°
2026-05-06 07:58 42.85014 7.96327 34953 ft 392 kts 222°
2026-05-06 07:58 42.80927 7.91405 34944 ft 392 kts 222°
2026-05-06 07:59 42.76842 7.86490 34938 ft 392 kts 222°
2026-05-06 07:59 42.74927 7.83870 34910 ft 391 kts 234°
2026-05-06 07:59 42.73770 7.80527 34918 ft 394 kts 248°
2026-05-06 08:00 42.72734 7.77095 34910 ft 390 kts 235°
2026-05-06 08:00 42.70977 7.74312 34907 ft 388 kts 222°
2026-05-06 08:00 42.66647 7.69889 34907 ft 391 kts 216°
2026-05-06 08:01 42.62265 7.65512 34907 ft 391 kts 220°
2026-05-06 08:01 42.58134 7.60703 34916 ft 392 kts 223°
2026-05-06 08:02 42.54118 7.55711 34956 ft 392 kts 223°
2026-05-06 08:02 42.50088 7.50742 34952 ft 391 kts 223°
2026-05-06 08:03 42.46719 7.46654 34949 ft 391 kts 222°
2026-05-06 08:03 42.42653 7.41761 34950 ft 391 kts 222°
2026-05-06 08:04 42.38588 7.36880 34949 ft 391 kts 222°
2026-05-06 08:04 42.34519 7.31983 34925 ft 391 kts 222°
2026-05-06 08:05 42.30448 7.27086 34931 ft 392 kts 222°
2026-05-06 08:05 42.26364 7.22193 34939 ft 393 kts 222°
2026-05-06 08:06 42.22270 7.17300 34955 ft 393 kts 222°
2026-05-06 08:06 42.18171 7.12418 34943 ft 393 kts 222°
2026-05-06 08:07 42.14066 7.07529 34952 ft 394 kts 222°
2026-05-06 08:07 42.09956 7.02637 34957 ft 395 kts 222°
2026-05-06 08:08 42.05832 6.97740 34965 ft 395 kts 222°
2026-05-06 08:08 42.01733 6.92876 34969 ft 396 kts 222°
2026-05-06 08:09 41.97572 6.87957 34947 ft 396 kts 222°
2026-05-06 08:09 41.93433 6.83067 34979 ft 396 kts 222°
2026-05-06 08:10 41.89318 6.78221 34983 ft 396 kts 222°
2026-05-06 08:10 41.85174 6.73357 34982 ft 396 kts 222°
2026-05-06 08:11 41.81033 6.68497 34978 ft 396 kts 222°
2026-05-06 08:11 41.76890 6.63645 34954 ft 396 kts 222°
2026-05-06 08:12 41.72745 6.58781 34965 ft 397 kts 222°
2026-05-06 08:12 41.68584 6.53922 34970 ft 397 kts 222°
2026-05-06 08:13 41.64416 6.49071 34973 ft 397 kts 222°
2026-05-06 08:13 41.60251 6.44216 34999 ft 397 kts 222°
2026-05-06 08:14 41.56079 6.39375 34982 ft 397 kts 222°
2026-05-06 08:14 41.51906 6.34537 34983 ft 397 kts 222°
2026-05-06 08:15 41.47731 6.29702 34990 ft 397 kts 222°
2026-05-06 08:15 41.43554 6.24877 34990 ft 398 kts 222°
2026-05-06 08:16 41.39373 6.20047 34957 ft 398 kts 222°
2026-05-06 08:16 41.35180 6.15231 34970 ft 398 kts 222°
2026-05-06 08:17 41.30980 6.10410 34983 ft 399 kts 222°
2026-05-06 08:17 41.26781 6.05584 35007 ft 399 kts 222°
2026-05-06 08:18 41.22611 6.00795 34998 ft 398 kts 222°
2026-05-06 08:18 41.18417 5.95993 34958 ft 398 kts 222°
2026-05-06 08:19 41.14208 5.91195 34970 ft 399 kts 222°
2026-05-06 08:19 41.09988 5.86398 34970 ft 400 kts 222°
2026-05-06 08:20 41.05767 5.81590 34977 ft 401 kts 222°
2026-05-06 08:20 41.01530 5.76782 34986 ft 401 kts 222°
2026-05-06 08:21 40.97286 5.71981 34969 ft 402 kts 222°
2026-05-06 08:21 40.93712 5.66381 34990 ft 400 kts 239°
2026-05-06 08:22 40.91194 5.59823 34995 ft 400 kts 242°
2026-05-06 08:22 40.88684 5.53256 34993 ft 400 kts 242°
2026-05-06 08:23 40.86180 5.46683 34997 ft 401 kts 242°
2026-05-06 08:23 40.83670 5.40112 34997 ft 401 kts 242°
2026-05-06 08:24 40.81170 5.33590 34999 ft 401 kts 242°
2026-05-06 08:24 40.78662 5.27058 34965 ft 397 kts 242°
2026-05-06 08:25 40.76157 5.20549 34964 ft 398 kts 242°
2026-05-06 08:25 40.73640 5.14030 34983 ft 399 kts 242°
2026-05-06 08:26 40.71118 5.07511 34987 ft 399 kts 242°
2026-05-06 08:26 40.68599 5.00990 34993 ft 400 kts 242°
2026-05-06 08:27 40.66063 4.94462 35008 ft 400 kts 242°
2026-05-06 08:27 40.63529 4.87946 35005 ft 400 kts 242°
2026-05-06 08:28 40.60997 4.81429 35005 ft 400 kts 242°
2026-05-06 08:28 40.58461 4.74923 35005 ft 400 kts 242°
2026-05-06 08:29 40.55910 4.68436 35002 ft 399 kts 242°
2026-05-06 08:29 40.53354 4.61949 35007 ft 399 kts 242°
2026-05-06 08:30 40.50815 4.55461 35027 ft 399 kts 242°
2026-05-06 08:30 40.48276 4.48992 35010 ft 398 kts 242°
2026-05-06 08:31 40.45726 4.42540 35004 ft 398 kts 242°
2026-05-06 08:31 40.43175 4.36103 34999 ft 397 kts 242°
2026-05-06 08:32 40.40623 4.29666 34998 ft 397 kts 242°
2026-05-06 08:32 40.38066 4.23237 34964 ft 398 kts 242°
2026-05-06 08:33 40.35505 4.16797 34989 ft 399 kts 242°
2026-05-06 08:33 40.32937 4.10357 34991 ft 399 kts 242°
2026-05-06 08:34 40.29072 4.00706 34995 ft 399 kts 242°
2026-05-06 08:35 40.26490 3.94273 34991 ft 399 kts 242°
2026-05-06 08:35 40.23905 3.87850 34992 ft 399 kts 242°
2026-05-06 08:36 40.21323 3.81422 35003 ft 399 kts 242°
2026-05-06 08:36 40.18749 3.75051 34968 ft 399 kts 242°
2026-05-06 08:37 40.16152 3.68641 34975 ft 400 kts 242°
2026-05-06 08:37 40.13541 3.62224 34994 ft 400 kts 242°
2026-05-06 08:38 40.10921 3.55796 34984 ft 401 kts 242°
2026-05-06 08:38 40.08299 3.49364 34985 ft 401 kts 242°
2026-05-06 08:39 40.05675 3.42937 34992 ft 401 kts 242°
2026-05-06 08:39 40.03050 3.36506 34995 ft 402 kts 242°
2026-05-06 08:40 40.00418 3.30077 34995 ft 402 kts 242°
2026-05-06 08:40 39.97771 3.23656 34980 ft 402 kts 242°
2026-05-06 08:41 39.95122 3.17232 34980 ft 403 kts 242°
2026-05-06 08:41 39.91777 3.11403 34989 ft 405 kts 224°
2026-05-06 08:42 39.87056 3.07314 34990 ft 411 kts 212°
2026-05-06 08:42 39.82066 3.03693 35007 ft 411 kts 213°
2026-05-06 08:43 39.77077 3.00059 35002 ft 411 kts 213°
2026-05-06 08:43 39.72087 2.96431 34975 ft 411 kts 213°
2026-05-06 08:44 39.67111 2.92830 34983 ft 412 kts 213°
2026-05-06 08:44 39.62094 2.89206 34991 ft 413 kts 213°
2026-05-06 08:45 39.57074 2.85583 34991 ft 413 kts 213°
2026-05-06 08:45 39.52050 2.81959 34975 ft 414 kts 213°
2026-05-06 08:46 39.47018 2.78333 34956 ft 414 kts 213°
2026-05-06 08:46 39.42420 2.73978 34964 ft 408 kts 228°
2026-05-06 08:47 39.38810 2.68357 34970 ft 407 kts 233°
2026-05-06 08:47 39.35248 2.62676 34999 ft 407 kts 233°
2026-05-06 08:48 39.31673 2.57012 34964 ft 407 kts 233°
2026-05-06 08:48 39.28082 2.51342 33937 ft 413 kts 233°
2026-05-06 08:48 39.26260 2.48467 33075 ft 413 kts 232°
2026-05-06 08:49 39.24446 2.45607 32342 ft 411 kts 232°
2026-05-06 08:49 39.22638 2.42759 31539 ft 411 kts 232°
2026-05-06 08:49 39.20824 2.39907 30726 ft 411 kts 231°
2026-05-06 08:49 39.19008 2.37051 29867 ft 413 kts 231°
2026-05-06 08:50 39.17187 2.34187 28941 ft 413 kts 231°
2026-05-06 08:50 39.15984 2.32293 28351 ft 412 kts 231°
2026-05-06 08:50 39.13557 2.28473 27218 ft 411 kts 232°
2026-05-06 08:50 39.11738 2.25613 26227 ft 414 kts 232°
2026-05-06 08:51 39.09905 2.22740 25180 ft 417 kts 232°
2026-05-06 08:51 39.08061 2.19857 24257 ft 418 kts 232°
2026-05-06 08:51 39.06208 2.16966 23336 ft 419 kts 232°
2026-05-06 08:51 39.04984 2.15059 22799 ft 416 kts 232°
2026-05-06 08:52 39.03157 2.12211 22058 ft 409 kts 231°
2026-05-06 08:52 39.01358 2.09408 21334 ft 403 kts 231°
2026-05-06 08:52 38.99583 2.06642 20606 ft 399 kts 231°
2026-05-06 08:52 38.97826 2.03901 19886 ft 396 kts 231°
2026-05-06 08:53 38.96083 2.01187 19181 ft 392 kts 231°
2026-05-06 08:53 38.94352 1.98494 18485 ft 389 kts 231°
2026-05-06 08:53 38.92638 1.95812 17720 ft 386 kts 233°
2026-05-06 08:53 38.91183 1.92938 16991 ft 383 kts 242°
2026-05-06 08:54 38.90139 1.89819 16266 ft 379 kts 251°
2026-05-06 08:54 38.89448 1.86567 15551 ft 376 kts 255°
2026-05-06 08:54 38.88797 1.83336 14860 ft 372 kts 255°
2026-05-06 08:54 38.88142 1.80142 14187 ft 368 kts 254°
2026-05-06 08:55 38.87487 1.76985 13510 ft 364 kts 255°
2026-05-06 08:55 38.86836 1.73859 12887 ft 362 kts 255°
2026-05-06 08:55 38.86188 1.70751 12288 ft 360 kts 255°
2026-05-06 08:55 38.85543 1.67653 11680 ft 358 kts 255°
2026-05-06 08:56 38.84905 1.64594 11198 ft 349 kts 255°
2026-05-06 08:56 38.84297 1.61667 11078 ft 330 kts 255°
2026-05-06 08:56 38.83722 1.58895 10946 ft 313 kts 255°
2026-05-06 08:56 38.83157 1.56270 10826 ft 298 kts 254°
2026-05-06 08:57 38.82611 1.53806 10685 ft 285 kts 254°
2026-05-06 08:57 38.82072 1.51395 10448 ft 278 kts 254°
2026-05-06 08:57 38.81542 1.49020 10206 ft 277 kts 254°
2026-05-06 08:57 38.81013 1.46653 9965 ft 276 kts 254°
2026-05-06 08:58 38.80487 1.44287 9836 ft 276 kts 254°
2026-05-06 08:58 38.79777 1.42002 9710 ft 277 kts 243°
2026-05-06 08:58 38.78866 1.39827 9578 ft 277 kts 242°
2026-05-06 08:58 38.77960 1.37653 9445 ft 277 kts 243°
2026-05-06 08:59 38.77060 1.35475 9300 ft 277 kts 243°
2026-05-06 08:59 38.76146 1.33262 8718 ft 283 kts 242°
2026-05-06 08:59 38.75245 1.31086 8563 ft 270 kts 242°
2026-05-06 08:59 38.74383 1.29004 8449 ft 259 kts 242°
2026-05-06 09:00 38.73554 1.27007 8323 ft 249 kts 242°
2026-05-06 09:00 38.72748 1.25071 8052 ft 245 kts 242°
2026-05-06 09:00 38.71946 1.23148 7687 ft 245 kts 242°
2026-05-06 09:00 38.71146 1.21229 7362 ft 244 kts 242°
2026-05-06 09:01 38.70577 1.19201 6998 ft 244 kts 264°
2026-05-06 09:01 38.70808 1.17067 6624 ft 245 kts 294°
2026-05-06 09:01 38.71807 1.15341 6306 ft 243 kts 322°
2026-05-06 09:01 38.73290 1.14423 5833 ft 234 kts 351°
2026-05-06 09:02 38.74876 1.14453 5026 ft 227 kts 12°
2026-05-06 09:02 38.76426 1.14820 4166 ft 226 kts 17°
2026-05-06 09:02 38.77824 1.15687 3601 ft 222 kts 39°
2026-05-06 09:02 38.78868 1.17109 3259 ft 220 kts 59°
2026-05-06 09:03 38.79602 1.18825 2950 ft 220 kts 63°
2026-05-06 09:03 38.80321 1.20549 2664 ft 219 kts 62°
2026-05-06 09:03 38.81026 1.22241 2384 ft 208 kts 62°
2026-05-06 09:03 38.81694 1.23847 2098 ft 200 kts 62°
2026-05-06 09:04 38.82321 1.25353 1849 ft 183 kts 62°
2026-05-06 09:04 38.82893 1.26727 1623 ft 165 kts 62°
2026-05-06 09:04 38.83401 1.27950 1396 ft 147 kts 62°
2026-05-06 09:04 38.83866 1.29068 1203 ft 140 kts 63°
2026-05-06 09:05 38.84317 1.30155 1023 ft 137 kts 62°
2026-05-06 09:05 38.84761 1.31224 839 ft 139 kts 63°
2026-05-06 09:05 38.85224 1.32337 709 ft 143 kts 62°
2026-05-06 09:05 38.85701 1.33468 497 ft 145 kts 63°
2026-05-06 09:06 38.86162 1.34610 288 ft 144 kts 62°
2026-05-06 09:06 38.86631 1.35727 86 ft 140 kts 63°
2026-05-06 09:06 38.87057 1.36763 8 ft 108 kts 62°
2026-05-06 09:06 38.87266 1.37269 12 ft 26 kts 62°
2026-05-06 09:07 38.87368 1.37428 10 ft 22 kts 35°
2026-05-06 09:07 38.87464 1.37509 10 ft 13 kts 32°
2026-05-06 09:07 38.87527 1.37560 9 ft 10 kts 30°
2026-05-06 09:07 38.87600 1.37545 9 ft 12 kts 333°
2026-05-06 09:08 38.87679 1.37491 10 ft 14 kts 325°
2026-05-06 09:08 38.87678 1.37381 9 ft 14 kts 242°
2026-05-06 09:08 38.87629 1.37263 9 ft 16 kts 242°
2026-05-06 09:08 38.87583 1.37153 9 ft 9 kts 242°
2026-05-06 09:09 38.87551 1.37075 9 ft 10 kts 242°
2026-05-06 09:09 38.87544 1.37027 8 ft 4 kts 307°
2026-05-06 09:09 38.87574 1.37004 8 ft 3 kts 331°
2026-05-06 09:09 38.87590 1.36993 8 ft 2 kts 332°
2026-05-06 09:10 38.87592 1.36992 8 ft 0 kts 332°